Location: Big Meadows
(38.5260°N, 78.4400°W)
Time: 14:57:27
(UTC-05:00)

H-2A R/B - Visible Passes

Search period start: 01 March 2017 00:00
Search period end: 11 March 2017 00:00
Orbit: 735 x 837 km, 98.4° (Epoch: 01 March)

Date Brightness Start Highest point End Pass type
(mag) Time Alt. Az. Time Alt. Az. Time Alt. Az.
05 Mar 4.9 21:45:03 10° N 21:45:03 10° N 21:45:06 10° N visible
06 Mar 4.7 21:13:48 11° N 21:13:48 11° N 21:13:58 10° N visible
08 Mar 4.8 21:51:57 12° N 21:51:57 12° N 21:52:17 10° N visible
09 Mar 4.6 21:20:43 13° N 21:20:43 13° N 21:21:15 10° N visible
10 Mar 4.5 20:49:28 11° NNE 20:49:28 11° NNE 20:49:46 10° NNE visible
